English version Home page |
Updated on October 22, 2002 |
プロフィール
|
軌道要素Epoch 2001 Feb. 20.0 TT = JDT 2451960.5 T 2001 Feb. 2.2123 TT Marsden q 7.974743 (2000.0) P Q z -0.000394 Peri. 181.7360 +0.5282425 +0.6237274 +/-0.000008 Node 239.3958 +0.7868719 -0.1046446 e 1.003144 Incl. 137.9816 +0.3190494 -0.7746055 From 74 observations 2000 Oct. 24-2001 Oct. 29, mean residual 0".7.
|
星図
|
光度変化m1 = 6.0 + 5 logΔ + 10.0 log r
|
軌道要素は Dr. Brian G. Marsden の計算によるもので、PCのEphemerides and Orbital Elementsに掲載されたものです。
|